• In Lithuania
  • List of Countries
  • For 7 days
  • Water Temperature
  • Satellite Maps
  • Weather Map
  • Weather Widgets
  • user-avatar
    Login

    Hourly Weather Kerns

    Today, 22 October, Sunday

    Time Temperature Precipitation Wind Pressure Humidity
    00:00 +26°C° 0.5 mm 3 mps 758 mmHg 94%
    01:00 +25°C° 0.5 mm 3 mps 758 mmHg 94%
    02:00 +25°C° 0.1 mm 3 mps 757 mmHg 95%
    03:00 +24°C° 0.1 mm 2 mps 757 mmHg 96%
    04:00 +24°C° 0 mm 2 mps 757 mmHg 96%
    05:00 +25°C° 0.1 mm 2 mps 757 mmHg 94%
    06:00 +25°C° 0.1 mm 2 mps 757 mmHg 91%
    07:00 +26°C° 0.1 mm 2 mps 758 mmHg 89%
    08:00 +28°C° 0 mm 2 mps 758 mmHg 81%
    09:00 +29°C° 0 mm 2 mps 758 mmHg 73%
    10:00 +29°C° 0 mm 3 mps 758 mmHg 75%
    11:00 +30°C° 0.4 mm 3 mps 758 mmHg 74%
    12:00 +30°C° 0.4 mm 3 mps 757 mmHg 72%
    13:00 +32°C° 0.4 mm 4 mps 757 mmHg 70%
    14:00 +30°C° 0.4 mm 4 mps 757 mmHg 73%
    15:00 +30°C° 0.4 mm 4 mps 756 mmHg 76%
    16:00 +29°C° 0 mm 3 mps 756 mmHg 80%
    17:00 +28°C° 0.1 mm 3 mps 756 mmHg 84%
    18:00 +27°C° 0.1 mm 3 mps 757 mmHg 88%
    19:00 +26°C° 0.1 mm 3 mps 757 mmHg 93%
    20:00 +25°C° 0 mm 2 mps 757 mmHg 93%
    21:00 +25°C° 0 mm 2 mps 758 mmHg 94%
    22:00 +25°C° 0 mm 2 mps 758 mmHg 95%
    23:00 +25°C° 0 mm 2 mps 758 mmHg 95%

    Tomorrow, 23 October, Monday

    Time Temperature Precipitation Wind Pressure Humidity
    00:00 +24°C° 0 mm 1 mps 758 mmHg 96%
    01:00 +24°C° 0 mm 1 mps 758 mmHg 96%
    02:00 +24°C° 0 mm 1 mps 758 mmHg 95%
    03:00 +23°C° 0 mm 1 mps 758 mmHg 94%
    04:00 +23°C° 0 mm 1 mps 758 mmHg 93%
    05:00 +24°C° 0 mm 1 mps 758 mmHg 90%
    06:00 +24°C° 0 mm 1 mps 758 mmHg 87%
    07:00 +25°C° 0 mm 1 mps 758 mmHg 84%
    08:00 +27°C° 0 mm 1 mps 759 mmHg 73%
    09:00 +30°C° 0 mm 2 mps 759 mmHg 63%
    10:00 +32°C° 0 mm 2 mps 759 mmHg 52%
    11:00 +34°C° 0 mm 2 mps 759 mmHg 49%
    12:00 +35°C° 0 mm 3 mps 758 mmHg 46%
    13:00 +35°C° 0 mm 3 mps 758 mmHg 44%
    14:00 +35°C° 0 mm 3 mps 758 mmHg 48%
    15:00 +34°C° 0 mm 3 mps 757 mmHg 52%
    16:00 +33°C° 0 mm 4 mps 757 mmHg 56%
    17:00 +30°C° 0 mm 3 mps 758 mmHg 66%
    18:00 +28°C° 0 mm 3 mps 758 mmHg 76%
    19:00 +26°C° 0 mm 3 mps 758 mmHg 86%
    20:00 +26°C° 0 mm 3 mps 759 mmHg 88%
    21:00 +25°C° 0 mm 2 mps 760 mmHg 90%
    22:00 +25°C° 0 mm 2 mps 760 mmHg 92%
    23:00 +25°C° 0 mm 2 mps 760 mmHg 93%

    Day after tomorrow, 24 October, Tuesday

    Time Temperature Precipitation Wind Pressure Humidity
    00:00 +25°C° 0 mm 2 mps 760 mmHg 93%
    01:00 +25°C° 0 mm 2 mps 760 mmHg 94%
    02:00 +24°C° 0 mm 2 mps 759 mmHg 94%
    03:00 +24°C° 0 mm 2 mps 759 mmHg 95%
    04:00 +24°C° 0 mm 2 mps 759 mmHg 95%
    05:00 +24°C° 0 mm 2 mps 760 mmHg 93%
    06:00 +25°C° 0 mm 2 mps 760 mmHg 92%
    07:00 +25°C° 0 mm 2 mps 761 mmHg 90%
    08:00 +27°C° 0 mm 2 mps 761 mmHg 79%
    09:00 +29°C° 0 mm 3 mps 762 mmHg 68%
    10:00 +31°C° 0 mm 3 mps 762 mmHg 57%
    11:00 +33°C° 0 mm 4 mps 761 mmHg 54%
    12:00 +33°C° 0 mm 4 mps 761 mmHg 51%
    13:00 +34°C° 0 mm 4 mps 761 mmHg 48%
    14:00 +33°C° 0 mm 4 mps 760 mmHg 50%
    15:00 +33°C° 0 mm 4 mps 760 mmHg 52%
    16:00 +32°C° 0 mm 4 mps 759 mmHg 54%
    17:00 +29°C° 0 mm 4 mps 760 mmHg 63%
    18:00 +28°C° 0 mm 4 mps 760 mmHg 73%
    19:00 +26°C° 0 mm 3 mps 761 mmHg 83%
    20:00 +25°C° 0 mm 4 mps 761 mmHg 86%
    21:00 +25°C° 0 mm 4 mps 762 mmHg 89%
    22:00 +23°C° 0 mm 4 mps 762 mmHg 92%
    23:00 +23°C° 0 mm 4 mps 762 mmHg 93%

    25 October, Wednesday

    Time Temperature Precipitation Wind Pressure Humidity
    00:00 +23°C° 0 mm 4 mps 761 mmHg 94%
    01:00 +23°C° 0 mm 4 mps 761 mmHg 94%
    02:00 +22°C° 0 mm 4 mps 761 mmHg 95%
    03:00 +22°C° 0 mm 4 mps 761 mmHg 95%
    04:00 +22°C° 0 mm 4 mps 760 mmHg 95%
    05:00 +23°C° 0 mm 4 mps 761 mmHg 92%
    06:00 +23°C° 0 mm 4 mps 761 mmHg 89%
    07:00 +25°C° 0 mm 4 mps 762 mmHg 86%
    08:00 +27°C° 0 mm 4 mps 762 mmHg 77%
    09:00 +29°C° 0 mm 4 mps 762 mmHg 68%
    10:00 +30°C° 0 mm 5 mps 762 mmHg 58%
    11:00 +32°C° 0 mm 5 mps 762 mmHg 55%
    12:00 +33°C° 0 mm 5 mps 761 mmHg 53%
    13:00 +34°C° 0 mm 5 mps 761 mmHg 50%
    14:00 +33°C° 0 mm 4 mps 760 mmHg 51%
    15:00 +33°C° 0 mm 4 mps 760 mmHg 52%
    16:00 +32°C° 0 mm 4 mps 759 mmHg 53%
    17:00 +29°C° 0 mm 4 mps 760 mmHg 62%
    18:00 +27°C° 0 mm 4 mps 760 mmHg 72%
    19:00 +26°C° 0 mm 4 mps 761 mmHg 81%
    20:00 +25°C° 0 mm 4 mps 761 mmHg 84%
    21:00 +23°C° 0 mm 4 mps 762 mmHg 88%
    22:00 +22°C° 0 mm 3 mps 762 mmHg 91%
    23:00 +22°C° 0 mm 3 mps 761 mmHg 91%

    26 October, Thursday

    Time Temperature Precipitation Wind Pressure Humidity
    00:00 +22°C° 0 mm 3 mps 761 mmHg 92%
    01:00 +21°C° 0 mm 3 mps 760 mmHg 93%
    02:00 +21°C° 0 mm 3 mps 760 mmHg 93%
    03:00 +21°C° 0 mm 3 mps 760 mmHg 94%
    04:00 +21°C° 0 mm 3 mps 759 mmHg 94%
    05:00 +22°C° 0 mm 3 mps 760 mmHg 90%
    06:00 +22°C° 0 mm 3 mps 760 mmHg 87%
    07:00 +24°C° 0 mm 3 mps 760 mmHg 83%
    08:00 +26°C° 0 mm 3 mps 760 mmHg 73%
    09:00 +29°C° 0 mm 4 mps 760 mmHg 63%
    10:00 +32°C° 0 mm 4 mps 761 mmHg 53%
    11:00 +33°C° 0 mm 4 mps 760 mmHg 49%
    12:00 +34°C° 0 mm 4 mps 759 mmHg 45%
    13:00 +35°C° 0 mm 4 mps 758 mmHg 41%
    14:00 +35°C° 0 mm 4 mps 758 mmHg 42%
    15:00 +34°C° 0 mm 4 mps 757 mmHg 43%
    16:00 +34°C° 0 mm 3 mps 757 mmHg 44%
    17:00 +30°C° 0 mm 3 mps 757 mmHg 54%
    18:00 +28°C° 0 mm 3 mps 758 mmHg 65%
    19:00 +25°C° 0 mm 2 mps 758 mmHg 76%
    20:00 +25°C° 0 mm 2 mps 759 mmHg 81%
    21:00 +24°C° 0 mm 2 mps 759 mmHg 85%
    22:00 +23°C° 0 mm 2 mps 759 mmHg 89%
    23:00 +23°C° 0 mm 2 mps 759 mmHg 89%

    27 October, Friday

    Time Temperature Precipitation Wind Pressure Humidity
    00:00 +21°C° 0 mm 2 mps 758 mmHg 89%
    01:00 +22°C° 0 mm 1 mps 758 mmHg 89%
    02:00 +22°C° 0 mm 1 mps 758 mmHg 88%
    03:00 +21°C° 0 mm 1 mps 757 mmHg 87%
    04:00 +21°C° 0 mm 1 mps 757 mmHg 86%
    05:00 +22°C° 0 mm 1 mps 758 mmHg 80%
    06:00 +23°C° 0 mm 1 mps 758 mmHg 74%
    07:00 +24°C° 0 mm 1 mps 759 mmHg 68%
    08:00 +27°C° 0 mm 1 mps 759 mmHg 57%
    09:00 +30°C° 0 mm 1 mps 759 mmHg 46%
    10:00 +34°C° 0 mm 2 mps 758 mmHg 35%
    11:00 +35°C° 0 mm 2 mps 758 mmHg 33%
    12:00 +36°C° 0 mm 2 mps 757 mmHg 30%
    13:00 +38°C° 0 mm 2 mps 757 mmHg 28%
    14:00 +37°C° 0 mm 2 mps 756 mmHg 31%
    15:00 +36°C° 0 mm 2 mps 756 mmHg 33%
    16:00 +36°C° 0 mm 2 mps 756 mmHg 36%
    17:00 +32°C° 0 mm 2 mps 756 mmHg 49%
    18:00 +29°C° 0 mm 2 mps 757 mmHg 63%
    19:00 +26°C° 0 mm 2 mps 757 mmHg 76%
    20:00 +26°C° 0 mm 1 mps 758 mmHg 80%
    21:00 +25°C° 0 mm 1 mps 758 mmHg 83%
    22:00 +24°C° 0 mm 1 mps 759 mmHg 86%
    23:00 +24°C° 0 mm 1 mps 758 mmHg 86%
    Show more